China Lake, CA

11:01 PM PDT on June 21, 2018 (GMT -0700)
China Lake NAWS

Weather History for KNID - June, 2018

Change the Weather History Date:

Thursday, June 14, 2018

  Actual Average Record
Temperature  
Mean Temperature 86 °F -  
Max Temperature 105 °F 95 °F 108 °F (2000)
Min Temperature 69 °F 66 °F 51 °F (2006)
Cooling Degree Days 22    
Growing Degree Days 36 (Base 50)    
Moisture  
Dew Point 36 °F    
Average Humidity 16    
Maximum Humidity 30    
Minimum Humidity 7    
Precipitation  
Precipitation 0.00 in - - ()
Sea Level Pressure  
Sea Level Pressure 29.65 in    
Wind  
Wind Speed 9 mph (SW)    
Max Wind Speed 24 mph    
Max Gust Speed 34 mph    
Visibility 10 miles    
Events      
Averages and records for this station are not official NWS values.
T = Trace of Precipitation, MM = Missing Value Source: NWS Daily Summary

Daily Weather History Graph

Daily Weather History Graph

Search for Another Location

Airport or City:

Astronomy

Jun. 14, 2018 Rise Set
Actual Time 5:34 AM PDT 8:07 PM PDT
Civil Twilight 5:04 AM PDT 8:38 PM PDT
Nautical Twilight 4:27 AM PDT 9:15 PM PDT
Astronomical Twilight 3:45 AM PDT 9:56 PM PDT
Moon 6:34 AM PDT (6/14) 9:15 PM PDT (6/14)
Length of Visible Light 15h 33m
Length of Day
14h 33m
New Moon, 1% of the Moon is Illuminated
Jun 14
New Moon
Jun 20
First Quarter
Jun 27
Full
Jul 6
Last Quarter
Jul 12
New

Hourly Weather History & Observations

Time (PDT) Temp. Dew Point Humidity Pressure Visibility Wind Dir Wind Speed Gust Speed Precip Events Conditions
12:56 AM 82.0 °F 37.9 °F 21% 29.67 in 10.0 mi SW 8.1 mph - N/A   Clear
1:56 AM 82.0 °F 39.0 °F 22% 29.66 in 10.0 mi WSW 8.1 mph - N/A   Clear
2:56 AM 77.0 °F 37.9 °F 24% 29.66 in 10.0 mi Variable 3.5 mph - N/A   Clear
3:56 AM 78.1 °F 39.0 °F 25% 29.66 in 10.0 mi South 3.5 mph - N/A   Clear
4:56 AM 71.1 °F 36.0 °F 28% 29.67 in 10.0 mi SW 5.8 mph - N/A   Clear
5:56 AM 69.1 °F 36.0 °F 30% 29.68 in 10.0 mi WNW 5.8 mph - N/A   Clear
6:56 AM 77.0 °F 37.9 °F 24% 29.69 in 10.0 mi Calm Calm - N/A   Clear
7:56 AM 81.0 °F 39.0 °F 22% 29.71 in 10.0 mi NNW 4.6 mph - N/A   Clear
8:56 AM 87.1 °F 39.0 °F 18% 29.71 in 10.0 mi Calm Calm - N/A   Clear
9:56 AM 91.9 °F 39.0 °F 16% 29.70 in 10.0 mi Calm Calm - N/A   Clear
10:56 AM 95.0 °F 36.0 °F 13% 29.70 in 10.0 mi Variable 3.5 mph - N/A   Clear
11:56 AM 99.0 °F 35.1 °F 11% 29.69 in 10.0 mi North - - N/A   Clear
12:56 PM 102.0 °F 32.0 °F 9% 29.66 in 10.0 mi WSW 12.7 mph 19.6 mph N/A   Clear
1:56 PM 102.9 °F 28.9 °F 7% 29.64 in 10.0 mi WSW 20.7 mph 25.3 mph N/A   Clear
2:56 PM 104.0 °F 33.1 °F 9% 29.63 in 10.0 mi SSW 13.8 mph 31.1 mph N/A   Clear
3:56 PM 102.9 °F 34.0 °F 9% 29.60 in 10.0 mi WSW 18.4 mph 34.5 mph N/A   Clear
4:11 PM 102.9 °F 35.1 °F 10% 29.68 in 10.0 mi WSW 24.2 mph 32.2 mph N/A   Clear
4:56 PM 102.0 °F 33.1 °F 9% 29.60 in 10.0 mi WSW 21.9 mph 32.2 mph N/A   Clear
5:56 PM 100.0 °F 32.0 °F 9% 29.59 in 10.0 mi WSW 20.7 mph - N/A   Clear
6:56 PM 97.0 °F 32.0 °F 10% 29.59 in 10.0 mi WSW 21.9 mph 28.8 mph N/A   Clear
7:56 PM 93.0 °F 34.0 °F 12% 29.60 in 10.0 mi SW 16.1 mph 23.0 mph N/A   Partly Cloudy
8:56 PM 89.1 °F 36.0 °F 15% 29.62 in 10.0 mi SW 18.4 mph - N/A   Partly Cloudy
9:56 PM 87.1 °F 35.1 °F 16% 29.63 in 10.0 mi SW 17.3 mph - N/A   Clear
10:56 PM 84.9 °F 36.0 °F 17% 29.63 in 10.0 mi SW 19.6 mph 25.3 mph N/A   Clear
11:56 PM 82.9 °F 35.1 °F 18% 29.63 in 10.0 mi SSW 13.8 mph - N/A   Clear